Temperature
25 26 27 27 28 28 28 28 27 28 28 28 28 27 27 27 26 26 26 25 24 23 22 21 20 20 19 19 19 19 19 18 18 18 17 17 17 17 17 17 17 16 16 16
25 26 27 28 27 27 27 27 27 27 27 27 27 27 27 27 26 25 25 24 24 23 22 21 20 19 19 19 19 18 18 18 18 18 18 17 17 17 17 17 17 17 16 16
26 27 27 26 26 26 27 27 27 27 27 27 27 27 27 27 26 25 24 24 24 23 22 21 20 19 19 18 18 18 18 18 18 18 17 17 17 17 16 16 16 16 16 16
26 27 26 26 26 26 26 27 27 27 26 27 27 27 28 27 26 26 25 24 23 23 22 21 20 19 19 18 18 18 18 18 18 17 17 17 17 17 16 16 16 16 16 16
26 26 26 26 27 27 27 27 27 27 27 27 27 27 28 27 26 26 25 24 23 22 21 21 20 19 19 18 18 18 18 18 17 17 17 17 17 16 16 16 16 16 16 16
26 27 26 27 27 27 27 26 26 27 27 26 27 27 27 28 27 26 25 24 22 21 21 20 19 19 18 18 17 17 17 17 17 17 17 16 16 16 16 16 16 15 15 15
25 26 26 26 26 26 26 26 25 25 26 26 27 26 27 27 26 26 25 23 22 21 20 20 19 18 18 18 17 17 17 17 17 16 16 16 16 16 16 15 15 15 15 15
25 25 26 26 26 26 26 26 25 25 26 27 26 26 27 26 25 24 23 22 21 21 20 19 18 18 18 17 17 17 16 16 16 16 16 16 16 15 15 15 15 15 15 15
25 25 26 26 26 26 26 26 27 26 26 26 26 26 25 25 24 24 23 22 22 21 20 19 18 18 17 17 16 16 16 16 16 16 16 15 15 15 15 15 15 14 14 14
25 24 25 25 25 26 26 27 26 26 24 25 26 26 26 24 24 24 23 22 21 20 19 19 18 17 17 17 16 16 16 15 15 15 15 15 15 15 15 15 14 14 14 14
25 24 24 25 25 25 25 25 25 26 26 25 25 26 26 25 24 24 23 22 21 20 19 18 17 17 17 16 16 16 15 15 15 15 15 15 15 15 14 14 14 14 14 14
24 24 24 24 25 25 25 26 25 24 24 25 25 25 25 25 24 23 23 21 20 19 19 18 17 17 16 16 16 16 15 15 15 15 15 15 14 14 14 14 14 14 14 14
23 22 22 23 24 24 24 25 25 25 25 25 25 24 23 23 23 22 21 20 19 19 18 18 17 16 16 16 16 15 15 15 15 15 15 15 14 14 14 14 14 13 13 13
22 22 23 23 23 24 23 24 24 25 24 24 25 24 23 23 22 21 20 19 19 18 17 17 16 16 16 15 15 15 15 15 15 14 14 14 14 14 14 13 13 13 13 13
22 22 22 23 23 23 23 23 24 24 24 24 24 24 24 23 22 21 20 19 18 18 17 16 16 16 15 15 15 15 14 14 14 14 14 14 14 14 13 13 13 13 13 13
21 21 21 21 22 23 22 23 23 23 23 23 23 23 23 22 21 20 19 19 18 17 17 16 15 15 15 15 15 14 14 14 14 14 14 14 14 13 13 13 13 13 13 13
21 20 20 21 22 22 21 22 22 22 22 22 22 23 22 21 21 20 19 18 18 17 16 16 15 15 14 14 14 14 14 14 14 13 13 13 13 13 13 13 13 13 13 12
20 20 20 21 20 20 21 21 21 21 21 22 22 22 21 20 19 19 18 18 17 16 16 15 15 14 14 14 14 13 13 13 13 13 13 13 13 13 13 13 13 13 12 12
20 19 20 20 20 20 20 20 20 20 20 20 20 20 20 19 18 18 17 16 16 15 15 14 14 14 14 13 13 13 13 13 13 13 13 13 13 13 13 12 12 12 12 12
19 19 20 19 19 19 20 20 19 20 19 19 19 19 18 18 19 19 16 15 15 15 14 14 14 13 13 13 13 13 13 13 13 13 13 13 13 13 12 12 12 12 12 12
19 19 19 19 19 19 19 18 18 18 18 18 18 17 17 17 17 16 15 15 14 14 14 14 13 13 13 13 13 13 13 13 13 13 13 12 12 12 12 12 12 12 12 11
19 19 18 19 18 18 18 18 18 17 16 16 16 16 16 16 15 15 15 14 14 13 13 13 13 13 13 12 12 12 12 12 12 12 12 12 12 12 12 12 12 11 11 11
18 18 18 18 17 17 16 16 16 15 15 15 15 15 15 15 15 14 14 14 13 13 13 13 13 12 12 12 12 12 12 12 12 12 12 11 11 11 11 11 11 11 12 12
17 16 17 16 16 16 15 15 15 14 15 14 14 14 14 14 14 14 14 13 13 12 12 12 12 12 12 12 12 12 11 11 11 11 11 11 11 11 11 11 11 12 12 12
16 16 16 16 16 15 15 15 14 14 14 14 14 14 14 14 14 13 13 13 12 12 12 12 12 12 12 12 11 11 11 11 11 11 11 11 11 11 11 11 11 11 11 12
16 16 16 16 16 16 15 14 13 13 13 13 13 13 13 13 13 13 12 12 12 12 11 11 11 11 11 11 11 11 11 11 11 11 11 11 11 11 11 11 11 11 11 11
Wind_Speed
10 11 13 13 12 8 7 8 8 7 4 6 8 7 6 5 6 7 7 7 7 7 6 6 6 7 7 7 7 7 7 6 6 5 5 4 3 3 2 2 1 1 2 2
10 13 11 8 9 10 10 10 9 6 5 6 7 8 6 6 6 6 6 6 7 7 6 6 6 6 7 7 7 7 7 6 6 5 4 3 3 3 2 1 1 1 1 2
14 8 8 9 11 12 13 12 10 7 5 7 8 10 9 7 6 5 5 6 6 6 6 7 7 7 7 7 6 5 6 6 6 5 4 3 3 2 2 2 2 1 1 1
12 8 8 12 13 13 12 10 9 9 9 8 8 9 8 8 7 6 6 5 5 6 6 6 7 7 7 6 6 5 5 5 5 6 5 5 4 3 2 2 1 2 2 1
10 10 11 13 12 12 9 6 9 10 11 10 10 10 7 7 7 6 5 5 5 5 5 5 6 6 6 6 6 5 5 5 4 4 5 5 4 3 2 2 2 2 1 1
10 8 9 9 8 9 6 6 8 9 11 13 12 11 8 5 5 4 4 4 4 4 4 4 4 5 5 5 6 6 6 5 5 4 4 4 3 3 2 2 2 2 1 1
11 12 10 8 8 10 11 10 8 10 11 11 8 9 6 2 2 2 3 4 4 5 5 5 5 5 5 5 6 6 6 5 4 4 4 3 3 3 3 2 2 2 1 1
11 11 12 10 11 10 14 14 10 9 10 8 8 9 4 3 3 2 2 4 5 5 5 5 5 5 5 5 6 6 6 5 4 4 3 3 2 2 1 1 1 1 1 1
9 9 8 8 10 11 13 14 12 12 12 10 8 6 5 5 5 5 5 5 5 6 6 6 5 5 5 5 5 5 5 5 4 4 3 3 2 1 1 1 1 1 1 1
8 8 8 6 7 10 12 11 9 11 11 12 11 11 7 7 7 6 6 6 5 6 6 6 5 5 4 4 5 5 5 5 5 4 3 3 3 2 2 1 1 0 1 1
9 9 8 9 10 11 11 13 11 12 12 12 11 6 2 6 6 6 6 6 6 6 6 6 5 5 4 4 4 4 5 5 4 4 3 3 2 2 2 2 1 1 1 1
7 7 9 10 7 7 11 13 13 12 11 12 12 6 2 3 4 5 5 4 5 5 5 5 5 5 4 4 4 4 4 5 5 5 4 4 3 2 2 2 1 1 1 1
6 6 8 9 9 8 10 12 13 13 12 12 13 7 4 3 3 3 4 4 5 5 5 5 5 4 4 3 3 3 4 4 5 5 5 4 3 2 2 1 1 1 1 1
5 8 10 11 8 8 10 11 12 14 13 13 13 9 5 4 4 3 3 4 5 5 5 5 4 4 4 3 3 3 3 4 5 5 4 4 3 2 1 1 1 1 1 1
5 8 9 9 8 9 10 11 12 14 14 14 11 10 8 5 5 4 4 4 4 5 5 5 4 4 4 4 3 3 3 4 4 4 4 3 3 2 1 0 0 1 1 1
4 6 7 9 8 9 11 12 12 12 12 12 11 10 5 4 4 4 5 5 5 5 5 5 5 4 4 5 4 4 4 4 4 4 4 4 3 2 2 1 1 1 1 1
6 6 8 9 9 10 11 10 10 10 9 9 10 7 4 4 5 5 5 6 5 5 5 5 5 5 4 5 4 5 5 4 5 5 4 4 4 3 2 2 1 1 1 1
7 8 7 7 8 11 5 2 6 8 7 6 6 5 4 4 4 5 5 5 5 4 4 4 4 4 4 4 5 4 4 5 5 5 4 4 4 3 3 2 2 1 1 2
8 9 7 8 10 9 5 3 4 7 7 5 5 4 3 2 4 4 2 2 3 4 4 4 4 4 4 4 4 4 4 5 5 5 4 4 4 3 3 2 2 1 2 2
7 9 9 9 10 9 5 3 3 5 7 3 4 5 4 4 6 4 1 2 3 3 3 3 3 3 4 4 4 5 5 5 5 4 4 4 3 3 3 3 2 2 2 3
8 9 11 11 10 6 0 2 3 7 3 0 3 4 4 5 5 4 3 2 2 2 2 3 3 3 3 4 4 5 5 5 4 4 4 4 4 4 4 3 3 3 3 3
7 7 8 9 9 6 2 3 3 1 2 2 2 3 4 4 3 3 2 2 2 2 3 3 3 3 3 4 4 5 5 4 4 4 4 4 4 4 3 3 3 4 4 4
4 3 3 3 2 1 1 1 0 1 3 3 3 3 3 4 3 3 2 2 2 2 3 3 3 3 3 4 4 4 4 4 4 4 4 4 4 4 4 4 4 4 4 4
3 2 3 2 2 1 1 1 1 3 3 3 3 3 3 3 3 3 2 2 2 2 3 3 4 4 4 5 5 4 4 4 5 5 4 4 5 5 4 4 4 4 4 4
3 3 4 4 3 2 3 2 2 3 3 2 2 3 2 2 3 3 2 2 2 3 3 4 4 4 5 5 5 4 4 4 5 5 5 5 5 5 4 5 3 4 3 3
3 4 5 4 3 3 3 2 3 3 2 2 2 2 3 2 2 3 3 3 3 3 3 4 5 5 5 5 5 5 5 5 5 5 5 5 5 4 5 5 4 2 3 2
Wind_Direction
188 206 209 208 219 238 224 222 219 219 212 235 233 237 229 222 225 226 224 218 216 212 202 189 186 184 182 182 184 187 193 189 193 195 203 204 204 210 213 212 194 234 266 266
195 214 214 210 213 222 222 222 223 218 208 238 241 242 230 230 233 240 236 226 221 216 198 188 184 183 185 183 185 185 189 189 197 195 204 209 216 217 207 205 161 216 246 270
212 203 194 203 205 214 220 227 231 229 225 230 243 239 222 217 221 229 234 230 221 217 205 193 190 190 189 188 188 187 187 186 193 195 196 190 191 205 193 194 182 191 213 247
221 207 199 210 214 219 227 225 229 228 234 234 230 255 219 210 212 219 225 225 221 214 208 200 193 193 193 191 182 178 180 182 186 192 198 197 199 208 216 214 200 192 190 217
211 204 209 217 220 221 238 215 223 229 239 251 236 254 235 202 221 215 214 219 217 208 201 196 191 189 189 183 173 167 169 173 177 191 193 205 215 221 202 189 178 217 195 212
223 209 219 229 223 218 214 204 214 227 238 243 238 245 246 211 225 216 207 204 198 191 178 172 169 165 170 169 164 160 162 166 171 178 184 201 212 219 204 199 195 215 211 216
213 209 208 211 201 197 207 215 221 222 225 238 216 236 244 187 196 226 212 190 174 172 164 163 160 159 161 164 164 162 159 160 163 168 172 183 199 208 210 225 212 236 234 235
212 207 199 206 217 210 210 223 234 241 239 234 206 233 215 153 160 174 175 170 165 167 164 160 157 159 161 160 164 163 160 161 159 159 164 168 182 208 210 215 257 241 261 268
218 211 184 204 219 225 217 226 244 259 264 261 231 219 210 197 200 190 177 175 172 169 166 162 156 157 159 157 157 159 159 159 160 160 160 157 148 155 176 177 230 269 299 282
228 223 201 196 207 220 233 231 230 238 247 248 240 231 230 205 210 198 191 188 179 171 165 158 156 153 153 152 152 157 162 163 162 159 160 147 147 157 166 168 136 255 293 295
229 227 211 204 215 216 210 218 227 237 246 254 253 241 218 203 207 204 197 190 181 176 171 161 156 151 150 153 158 160 161 164 163 157 150 147 149 157 167 170 171 184 252 258
219 232 227 222 230 245 228 228 224 234 239 245 260 256 115 178 194 199 196 185 176 177 171 161 158 156 157 159 162 165 170 172 172 165 158 154 153 152 165 174 188 189 221 262
201 219 224 219 214 213 225 231 234 239 247 247 250 244 138 154 174 185 194 186 174 174 169 167 166 168 169 168 170 169 176 176 174 169 163 156 154 155 171 189 209 238 254 282
216 225 237 244 241 225 228 230 233 238 243 247 248 253 218 203 202 200 197 190 183 178 178 181 182 182 180 179 180 180 176 173 169 167 160 153 158 170 185 209 226 251 261 265
226 230 239 252 258 245 243 240 236 239 249 254 256 254 255 235 225 218 203 193 195 192 190 195 200 195 188 182 186 191 185 176 171 169 167 163 166 174 170 182 245 277 275 273
220 233 235 244 242 244 247 246 242 243 249 251 255 257 251 233 217 212 210 207 212 213 213 211 212 209 204 197 193 191 194 182 177 177 177 172 168 173 174 189 214 257 301 309
211 222 232 241 240 241 241 244 242 241 246 252 252 253 232 237 230 227 221 222 226 226 224 224 225 222 215 203 199 195 186 183 184 186 188 179 176 180 189 207 213 258 300 304
222 226 233 239 234 235 233 244 247 240 243 249 259 261 250 262 256 252 238 234 233 234 235 234 232 224 209 201 200 195 187 187 190 196 198 190 186 187 191 202 220 254 283 297
219 221 231 235 236 244 230 225 244 238 243 256 257 260 267 297 271 241 226 252 249 244 239 234 229 218 203 201 196 190 192 194 193 196 199 198 195 190 193 203 224 251 269 279
203 220 228 232 239 243 240 197 246 244 240 236 248 250 259 267 259 248 287 280 260 246 230 217 213 207 199 197 194 193 196 201 203 202 201 202 202 202 202 207 220 236 254 262
201 213 224 233 240 241 159 145 215 230 253 249 253 257 261 259 276 304 305 275 243 225 208 197 197 202 198 188 190 201 202 213 216 211 204 202 207 213 213 211 218 233 245 256
222 221 221 230 236 232 142 196 220 302 348 299 285 274 272 277 275 278 280 266 224 211 200 196 198 204 197 187 193 207 212 218 217 212 210 209 213 221 209 211 222 231 243 239
235 255 244 240 249 71 162 221 290 320 309 306 308 302 281 275 275 276 268 259 230 218 207 203 203 206 201 196 204 214 219 217 210 211 214 214 213 217 217 219 221 227 233 244
208 239 221 220 200 202 260 258 312 311 302 303 308 306 288 271 274 274 263 257 239 222 219 216 211 216 211 207 211 217 214 211 208 210 214 215 215 216 216 229 230 234 241 243
243 210 219 229 232 238 233 265 298 314 316 309 308 312 304 292 282 286 277 270 255 237 225 222 224 228 223 212 210 210 206 206 211 213 216 218 216 219 224 227 240 249 253 272
226 226 236 251 244 248 255 264 280 282 287 296 301 311 316 307 302 300 295 285 260 242 231 231 231 231 224 210 207 205 205 207 209 213 217 220 220 219 225 222 223 222 243 219
Height
1500 1498 1495 1493 1493 1492 1494 1496 1499 1497 1497 1499 1499 1499 1499 1502 1503 1504 1506 1507 1510 1512 1514 1515 1516 1517 1518 1520 1521 1522 1523 1524 1525 1527 1527 1528 1528 1529 1529 1529 1529 1529 1529 1529
1498 1494 1490 1492 1494 1495 1496 1498 1498 1497 1497 1499 1498 1498 1497 1499 1501 1502 1504 1505 1507 1510 1511 1513 1514 1515 1516 1517 1518 1520 1521 1522 1523 1524 1525 1526 1527 1528 1528 1527 1527 1527 1527 1528
1490 1487 1490 1494 1496 1498 1496 1496 1495 1497 1497 1496 1498 1497 1494 1495 1498 1501 1502 1503 1505 1507 1508 1510 1512 1513 1514 1515 1516 1518 1519 1520 1521 1522 1524 1525 1525 1526 1526 1526 1526 1526 1526 1526
1487 1487 1491 1493 1493 1493 1495 1490 1493 1496 1499 1496 1496 1498 1489 1489 1494 1497 1499 1501 1502 1504 1506 1508 1510 1511 1512 1514 1515 1516 1517 1518 1519 1520 1522 1522 1523 1524 1524 1524 1525 1525 1524 1525
1486 1486 1489 1490 1488 1490 1488 1488 1491 1493 1495 1496 1493 1497 1487 1485 1490 1492 1496 1498 1500 1502 1504 1506 1507 1509 1511 1512 1513 1514 1515 1516 1517 1518 1519 1520 1521 1522 1523 1523 1523 1523 1523 1523
1482 1485 1486 1485 1485 1488 1488 1491 1492 1491 1492 1502 1491 1495 1489 1482 1486 1489 1493 1496 1499 1500 1502 1504 1506 1507 1509 1510 1511 1512 1513 1514 1515 1516 1517 1518 1519 1520 1520 1521 1522 1522 1522 1522
1484 1482 1483 1485 1487 1489 1489 1493 1501 1502 1500 1495 1484 1491 1487 1482 1485 1488 1491 1494 1497 1499 1501 1503 1504 1506 1507 1508 1509 1510 1511 1513 1514 1515 1516 1516 1517 1518 1518 1519 1520 1521 1521 1521
1483 1483 1480 1481 1482 1483 1485 1486 1497 1503 1497 1487 1486 1488 1482 1482 1487 1490 1492 1494 1496 1498 1499 1501 1503 1504 1505 1506 1507 1509 1510 1511 1512 1514 1514 1515 1515 1516 1517 1517 1518 1519 1519 1519
1477 1479 1476 1478 1479 1479 1482 1482 1477 1485 1485 1490 1482 1481 1482 1484 1486 1488 1491 1492 1494 1496 1498 1500 1502 1503 1504 1505 1506 1507 1508 1510 1511 1512 1513 1513 1514 1514 1515 1516 1516 1517 1517 1518
1473 1480 1475 1477 1479 1478 1476 1476 1481 1486 1496 1496 1484 1481 1481 1482 1484 1485 1488 1490 1493 1496 1497 1499 1501 1502 1504 1505 1506 1507 1508 1509 1510 1511 1512 1513 1513 1513 1514 1515 1515 1515 1515 1516
1473 1480 1478 1477 1478 1476 1478 1479 1479 1478 1478 1488 1489 1482 1472 1477 1480 1482 1485 1489 1491 1494 1496 1498 1500 1501 1503 1504 1505 1506 1507 1508 1509 1510 1511 1511 1512 1513 1514 1514 1514 1514 1514 1514
1475 1476 1477 1474 1472 1472 1472 1472 1476 1484 1483 1479 1481 1481 1473 1475 1479 1482 1485 1488 1491 1493 1495 1497 1499 1500 1502 1503 1504 1505 1506 1506 1508 1509 1509 1510 1511 1512 1513 1513 1513 1513 1513 1513
1476 1479 1483 1479 1478 1475 1474 1472 1470 1471 1474 1477 1480 1480 1475 1477 1480 1483 1486 1488 1491 1493 1495 1496 1498 1499 1500 1501 1502 1503 1504 1505 1506 1507 1508 1509 1510 1510 1511 1512 1512 1512 1512 1512
1477 1476 1478 1479 1473 1471 1473 1472 1471 1471 1474 1474 1473 1473 1474 1477 1480 1483 1486 1488 1490 1492 1494 1495 1497 1498 1499 1500 1501 1501 1502 1503 1504 1505 1506 1507 1508 1509 1510 1510 1511 1511 1511 1511
1475 1474 1472 1470 1469 1469 1471 1470 1470 1471 1469 1471 1469 1471 1471 1475 1479 1483 1485 1488 1489 1491 1492 1494 1495 1496 1497 1498 1499 1500 1500 1501 1502 1504 1504 1505 1506 1507 1508 1509 1509 1509 1509 1509
1475 1475 1474 1474 1471 1469 1470 1469 1468 1469 1468 1469 1470 1471 1471 1476 1479 1482 1484 1486 1488 1489 1490 1492 1493 1494 1495 1496 1496 1497 1498 1499 1500 1502 1503 1504 1504 1506 1507 1507 1507 1507 1507 1507
1473 1475 1476 1474 1470 1470 1473 1468 1468 1469 1469 1470 1471 1470 1473 1476 1478 1480 1482 1484 1486 1487 1488 1489 1490 1491 1492 1494 1494 1495 1496 1497 1499 1500 1501 1502 1503 1504 1505 1506 1506 1506 1505 1505
1474 1474 1473 1472 1475 1481 1470 1467 1468 1468 1469 1470 1470 1471 1474 1476 1478 1480 1481 1483 1484 1485 1486 1487 1488 1489 1490 1491 1492 1493 1494 1495 1497 1498 1499 1500 1501 1502 1502 1503 1504 1504 1503 1503
1471 1473 1472 1471 1473 1471 1469 1470 1470 1470 1471 1472 1472 1473 1475 1477 1478 1478 1480 1481 1482 1483 1485 1485 1486 1486 1487 1489 1490 1491 1492 1493 1495 1496 1497 1498 1499 1499 1500 1501 1501 1501 1501 1501
1470 1470 1470 1470 1474 1474 1467 1468 1471 1472 1472 1472 1474 1474 1476 1477 1475 1475 1478 1479 1480 1481 1482 1483 1483 1484 1485 1486 1487 1489 1490 1491 1492 1494 1495 1496 1497 1498 1498 1499 1499 1499 1499 1499
1468 1469 1468 1468 1470 1466 1467 1470 1472 1476 1473 1473 1474 1475 1475 1475 1476 1477 1477 1478 1478 1479 1480 1480 1481 1482 1483 1484 1485 1487 1488 1489 1491 1492 1493 1494 1494 1495 1496 1496 1496 1497 1497 1497
1464 1465 1467 1466 1469 1471 1470 1470 1471 1473 1474 1473 1473 1474 1474 1475 1475 1476 1476 1476 1477 1477 1478 1479 1479 1480 1481 1482 1483 1484 1486 1487 1488 1489 1490 1491 1492 1493 1494 1494 1494 1494 1495 1495
1465 1466 1463 1467 1470 1470 1471 1472 1474 1474 1474 1473 1473 1473 1472 1472 1473 1474 1475 1475 1475 1476 1476 1477 1478 1478 1479 1480 1481 1482 1483 1485 1486 1487 1488 1489 1489 1490 1491 1491 1492 1492 1492 1493
1467 1469 1468 1469 1470 1472 1473 1473 1474 1474 1474 1473 1473 1471 1470 1470 1472 1473 1473 1474 1474 1474 1475 1475 1476 1476 1477 1478 1479 1480 1481 1482 1483 1484 1485 1486 1487 1488 1489 1489 1490 1490 1490 1490
1466 1468 1468 1469 1470 1472 1472 1473 1473 1473 1473 1473 1472 1471 1471 1471 1471 1471 1472 1472 1472 1472 1473 1473 1473 1474 1474 1475 1476 1477 1478 1479 1481 1482 1483 1484 1485 1486 1486 1486 1487 1487 1487 1487
1467 1468 1467 1466 1469 1469 1471 1472 1472 1472 1472 1472 1471 1471 1471 1471 1470 1470 1470 1470 1470 1470 1470 1470 1471 1471 1472 1472 1473 1474 1475 1476 1478 1479 1480 1481 1482 1483 1483 1484 1484 1483 1484 1483